Tracking 31023 objects as of 19-Jul-2025
HD Live streaming from Space Station
objects crossing your sky now

ONEWEB-0144

Track ONEWEB-0144 now!
10-day predictions
ONEWEB-0144 is classified as:


NORAD ID: 47290
Int'l Code: 2020-100AJ
Perigee: 1,219.6 km
Apogee: 1,222.2 km
Inclination: 87.9 °
Period: 109.7 minutes
Semi major axis: 7591 km
RCS: Unknown
Launch date: December 18, 2020
Source: United Kingdom (UK)
Launch site: VOSTOCHNY COSMODROME (VOSTO)
Your satellite tracking list
Your tracking list is empty




NASA's NSSDC Master Catalog

Two Line Element Set (TLE):
1 47290U 20100AJ  25199.82913202  .00000415  00000-0  11192-2 0  9994
2 47290  87.8853  56.9241 0001710  73.7812 286.3505 13.12443358220846
Source of the keplerian elements: AFSPC